Location: Helion Bumpstead
(52.0500°N, 0.4000°E)
Time: 20:42:10
(UTC+00:00)

COSMOS 2428 - Pass Details

Date: 15 November 2025
Orbit: 847 x 852 km, 70.9° (Epoch: 06 December)

Event Time Altitude Azimuth Distance (km) Brightness Sun altitude
Exits shadow 03:21:04 33° 44° (NE) 1,387 4.1 -36.1°
Drops below altitude 10° 03:24:11 10° 35° (NE) 2,482 5.6 -35.6°
Sets 03:26:39 0° 33° (NNE) 3,422 6.5 -35.3°
